Location: Breckenridge
(39.4820°N, 106.0380°W)
Time: 10:08:25
(UTC-06:00)

ISS - Pass Details

Date: 22 March 2019
Orbit: 408 x 410 km, 51.6° (Epoch: 22 April)

Event Time Altitude Azimuth Distance (km) Brightness Sun altitude
Rises 20:13:23 0° 229° (SW) 2,316 0.6 -11.4°
Reaches altitude 10° 20:15:27 10° 229° (SW) 1,458 -0.5 -11.8°
Maximum altitude 20:18:44 84° 140° (SE) 411 -3.9 -12.4°
Enters shadow 20:21:33 13° 53° (NE) 1,281 -1.7 -13.0°
